Weather History for Palm Springs, CA

Change the Weather History Date:

Friday, March 22, 2013

  Actual Average Record
Temperature  
Mean Temperature 74 °F 67 °F  
Max Temperature 89 °F 80 °F 96 °F (1931)
Min Temperature 59 °F 54 °F 34 °F (1924)
Degree Days  
Heating Degree Days 0 2  
Month to date heating degree days 22 60  
Since 1 July heating degree days 760 838  
Cooling Degree Days 9 3  
Month to date cooling degree days 146 55  
Year to date cooling degree days 158 82  
Growing Degree Days 24 (Base 50)    
Moisture  
Dew Point 36 °F    
Average Humidity 33    
Maximum Humidity 60    
Minimum Humidity 6    
Precipitation  
Precipitation 0.00 in 0.01 in 1.70 in (1954)
Month to date precipitation 0.04 0.56  
Year to date precipitation 0.97 2.59  
Since 1 July precipitation 2.19 5.39  
Snow  
Snow 0.00 in - - ()
Month to date snowfall 0.0  
Year to date snowfall 0.0  
Since 1 July snowfall 0.0  
Snow Depth 0.00 in    
Sea Level Pressure  
Sea Level Pressure 29.71 in    
Wind  
Wind Speed 6 mph (NW)    
Max Wind Speed 24 mph    
Max Gust Speed 36 mph    
Visibility 10 miles    
Events      
T = Trace of Precipitation, MM = Missing Value Source: NWS Daily Summary

Daily Weather History Graph

Daily Weather History Graph

Search for Another Location

Airport:

Trip Planner

Search our weather history database for the weather conditions in past years. The results will help you decide how hot, cold, wet, or windy it might be!

Date:

Astronomy

Mar. 22, 2013 Rise Set
Actual Time 6:46 AM PDT 6:59 PM PDT
Civil Twilight 6:21 AM PDT 7:24 PM PDT
Nautical Twilight 5:52 AM PDT 7:53 PM PDT
Astronomical Twilight 5:23 AM PDT 8:23 PM PDT
Moon 2:41 PM PDT (3/22) 3:38 AM PDT (3/22)
Length of Visible Light 13h 02m
Length of Day
12h 12m
Waxing Gibbous, 78% of the Moon is Illuminated
Mar 22
Waxing Gibbous
Mar 27
Full
Apr 2
Last Quarter
Apr 10
New
Apr 18
First Quarter

Hourly Weather History & Observations

Time (PDT) Temp. Dew Point Humidity Pressure Visibility Wind Dir Wind Speed Gust Speed Precip Events Conditions
12:53 AM 66.9 °F 46.0 °F 47% 29.65 in 10.0 mi Variable 3.5 mph - N/A   Clear
1:20 AM 66.2 °F 46.4 °F 49% 29.64 in 10.0 mi WNW 18.4 mph 28.8 mph N/A   Clear
1:53 AM 66.9 °F 45.0 °F 45% 29.65 in 10.0 mi NW 12.7 mph 19.6 mph N/A   Clear
2:53 AM 66.0 °F 44.1 °F 45% 29.65 in 10.0 mi WNW 6.9 mph - N/A   Clear
3:53 AM 64.0 °F 44.1 °F 48% 29.65 in 10.0 mi Calm Calm - N/A   Clear
4:53 AM 62.1 °F 45.0 °F 53% 29.67 in 10.0 mi WSW 5.8 mph - N/A   Clear
5:53 AM 60.1 °F 46.0 °F 60% 29.69 in 10.0 mi Calm Calm - N/A   Clear
6:53 AM 62.1 °F 42.1 °F 48% 29.71 in 10.0 mi West 9.2 mph - N/A   Clear
7:53 AM 62.1 °F 44.1 °F 52% 29.75 in 10.0 mi WSW 5.8 mph - N/A   Clear
8:53 AM 66.9 °F 42.1 °F 40% 29.77 in 10.0 mi SSE 4.6 mph - N/A   Clear
9:53 AM 75.0 °F 33.1 °F 22% 29.78 in 10.0 mi NW 5.8 mph - N/A   Clear
10:53 AM 78.1 °F 28.0 °F 16% 29.78 in 10.0 mi NW 9.2 mph - N/A   Clear
11:53 AM 81.0 °F 21.9 °F 11% 29.76 in 10.0 mi Variable 3.5 mph - N/A   Clear
12:53 PM 84.0 °F 17.1 °F 8% 29.75 in 10.0 mi ENE 6.9 mph - N/A   Clear
1:53 PM 84.0 °F 17.1 °F 8% 29.73 in 10.0 mi NW 4.6 mph - N/A   Clear
2:53 PM 87.1 °F 12.9 °F 6% 29.70 in 10.0 mi NNE 4.6 mph - N/A   Clear
3:53 PM 87.1 °F 12.9 °F 6% 29.68 in 10.0 mi ENE 5.8 mph - N/A   Clear
4:53 PM 86.0 °F 30.9 °F 14% 29.68 in 10.0 mi NW 15.0 mph 20.7 mph N/A   Clear
5:53 PM 82.9 °F 37.9 °F 20% 29.68 in 10.0 mi NW 16.1 mph - N/A   Clear
6:53 PM 79.0 °F 36.0 °F 21% 29.69 in 10.0 mi NW 12.7 mph 26.5 mph N/A   Clear
7:53 PM 77.0 °F 34.0 °F 21% 29.70 in 10.0 mi NNW 19.6 mph 23.0 mph N/A   Clear
8:53 PM 73.9 °F 39.9 °F 29% 29.72 in 10.0 mi NW 17.3 mph 25.3 mph N/A   Clear
9:53 PM 72.0 °F 44.1 °F 37% 29.74 in 10.0 mi NNW 16.1 mph 28.8 mph N/A   Clear
10:53 PM 70.0 °F 43.0 °F 38% 29.76 in 10.0 mi WNW 6.9 mph - N/A   Clear
11:53 PM 69.1 °F 43.0 °F 39% 29.77 in 10.0 mi NW 11.5 mph - N/A   Clear